Tracking 34305 objects as of 7-Jun-2026
HD Live streaming from Space Station
objects crossing your sky now

STARLINK-34093

Track STARLINK-34093 now!
10-day predictions
STARLINK-34093 is classified as:


NORAD ID: 64015
Int'l Code: 2025-101X
Perigee: 489.0 km
Apogee: 491.1 km
Inclination: 43.0 °
Period: 94.3 minutes
Semi major axis: 6861 km
RCS: Unknown
Launch date: May 14, 2025
Source: United States (US)
Launch site: AIR FORCE EASTERN TEST RANGE (AFETR)
Your satellite tracking list
Your tracking list is empty




NASA's NSSDC Master Catalog

Two Line Element Set (TLE):
1 64015U 25101X   26158.44051266  .00015268  00000-0  56247-3 0  9994
2 64015  42.9973 210.9021 0001532 259.7473 100.3206 15.27623147 60786
Source of the keplerian elements: AFSPC